{"data":{"norad_id":67564,"epoch":"2026-09-19T09:54:33.981120Z","epoch_age_seconds":166212,"freshness":"FRESH","line1":"1 67564U 26016D   26262.41289330  .00020558  00000+0  63727-3 0  9998","line2":"2 67564  97.2871 321.0851 0001157  99.1299 261.0074 15.33451371 36559","mean_motion":15.33451371,"eccentricity":0.0001157,"inclination_deg":97.2871,"raan_deg":321.0851,"arg_perigee_deg":99.1299,"mean_anomaly_deg":261.0074,"bstar":0.00063727,"rev_number":3655,"period_min":93.905814506589,"perigee_km":464.73240732711,"apogee_km":466.31603053317,"semimajor_km":6843.6612189301,"source":"CELESTRAK","updated_at":"2026-09-20T09:00:43.574093Z"}}